Tracking 28790 objects as of 19-Apr-2024
HD Live streaming from Space Station
objects crossing your sky now

SL-12 R/B(AUX MOTOR)

Track SL-12 R/B(AUX MOTOR) now!
10-day predictions


NORAD ID: 23403
Int'l Code: 1994-076H
Perigee: 523.4 km
Apogee: 18,815.6 km
Inclination: 65.2 °
Period: 337.0 minutes
Semi major axis: 16040 km
RCS: 0.7427 m2 (medium)
Launch date: November 20, 1994
Source: Commonwealth of Independent States (former USSR) (CIS)
Launch site: TYURATAM MISSILE AND SPACE COMPLEX (TTMTR)

Note: This is a ROCKET BODY
Your satellite tracking list
Your tracking list is empty




NASA's NSSDC Master Catalog

Two Line Element Set (TLE):
1 23403U 94076H   24109.79833134  .00000612  00000-0  19471-2 0  9995
2 23403  65.1971 241.9949 5701906 153.0814 227.5414  4.27342329456940
Source of the keplerian elements: AFSPC